This is the latest recevied weather packets stored in our database for station/object KQ4WWD. If no packets are shown the sender has not sent any weather packets the latest 1 day(s).
| Time | Temp. | Humidity | Pressure | Rain* | Wind** | Luminosity | Snow |
|---|---|---|---|---|---|---|---|
| 1778033397 | 23.33° C | 68% | 1016 hPa | 0 mm | 0.89 m/s, 130° | 0 W/m² | - |
| 1778033095 | 23.33° C | 68% | 1015.9 hPa | 0 mm | 0.45 m/s, 131° | 0 W/m² | - |
| 1778032791 | 23.33° C | 68% | 1015.9 hPa | 0 mm | 0 m/s | 0 W/m² | - |
| 1778032489 | 23.33° C | 69% | 1015.6 hPa | 0 mm | 0.89 m/s, 113° | 0 W/m² | - |
| 1778032186 | 23.33° C | 69% | 1015.9 hPa | 0 mm | 0.89 m/s, 128° | 0 W/m² | - |
| 1778031882 | 23.89° C | 68% | 1015.8 hPa | 0 mm | 0.45 m/s, 109° | 0 W/m² | - |
| 1778031579 | 23.89° C | 67% | 1015.9 hPa | 0 mm | 0.89 m/s, 127° | 0 W/m² | - |
| 1778031277 | 23.89° C | 66% | 1015.5 hPa | 0 mm | 0 m/s | 0 W/m² | - |
| 1778030973 | 23.89° C | 66% | 1015.7 hPa | 0 mm | 0.45 m/s, 113° | 0 W/m² | - |
| 1778030670 | 23.89° C | 67% | 1015.6 hPa | 0 mm | 0.89 m/s, 143° | 0 W/m² | - |
| 1778030367 | 23.89° C | 70% | 1015.7 hPa | 0 mm | 0 m/s | 0 W/m² | - |
| 1778030064 | 23.89° C | 67% | 1015.4 hPa | 0 mm | 0 m/s | 0 W/m² | - |
| 1778029761 | 24.44° C | 66% | 1015.5 hPa | 0 mm | 0 m/s | 0 W/m² | - |
| 1778029460 | 24.44° C | 66% | 1015.6 hPa | 0 mm | 0.45 m/s, 101° | 0 W/m² | - |
| 1778029155 | 24.44° C | 66% | 1015.2 hPa | 0 mm | 0 m/s | 0 W/m² | - |
| 1778028854 | 24.44° C | 65% | 1015 hPa | 0 mm | 0.89 m/s, 143° | 0 W/m² | - |
| 1778028548 | 25° C | 65% | 1014.8 hPa | 0 mm | 0.45 m/s, 83° | 0 W/m² | - |
| 1778028247 | 25° C | 64% | 1014.9 hPa | 0 mm | 0.45 m/s, 111° | 0 W/m² | - |
| 1778027942 | 25° C | 64% | 1014.7 hPa | 0 mm | 1.34 m/s, 137° | 0 W/m² | - |
| 1778027639 | 25° C | 63% | 1014.7 hPa | 0 mm | 2.24 m/s, 99° | 0 W/m² | - |
| 1778027336 | 25.56° C | 62% | 1014.7 hPa | 0 mm | 1.34 m/s, 134° | 0 W/m² | - |
| 1778027032 | 25.56° C | 62% | 1014.3 hPa | 0 mm | 1.34 m/s, 135° | 0 W/m² | - |
| 1778026727 | 25.56° C | 62% | 1014.4 hPa | 0 mm | 0.89 m/s, 128° | 0 W/m² | - |
| 1778026425 | 25.56° C | 62% | 1014.3 hPa | 0 mm | 1.79 m/s, 130° | 0 W/m² | - |
| 1778026133 | 26.11° C | 62% | 1014.1 hPa | 0 mm | 1.79 m/s, 156° | 0 W/m² | - |
* Rain latest hour (hover to see other rain measurements)
** Current wind speed in m/s (hover to see current wind gust speed)